CW3806 Weather Reports


time (UTC)temp
F
wind
direction
speed
knots
gust
knots
rain 1hr
in
rain 24hr
in
rain mn
in
humidity
%
barometer
mb
20260503051105 35 340 0.0 0.0 0.00 0.00 0.00 78 1012.2
20260503050605 35 340 0.0 0.9 0.00 0.00 0.00 78 1012.2
20260503045604 36 340 0.0 1.7 0.00 0.00 0.00 78 1012.7
20260503044604 36 340 0.0 4.3 0.00 0.00 0.00 77 1012.7
20260503044104 36 334 0.9 4.3 0.00 0.00 0.00 77 1012.7
20260503043604 36 334 0.0 4.3 0.00 0.00 0.00 77 1012.7
20260503043104 36 328 0.0 4.3 0.00 0.00 0.00 77 1012.7
20260503042605 36 328 0.9 4.3 0.00 0.00 0.00 77 1012.7
20260503042104 37 327 0.9 2.6 0.00 0.00 0.00 77 1012.7
20260503041605 37 327 0.0 4.3 0.00 0.00 0.00 77 1012.7
20260503041106 37 327 0.9 4.3 0.00 0.00 0.00 77 1012.7
20260503035104 37 329 1.7 7.0 0.00 0.00 0.00 77 1012.7
20260503034105 37 335 0.9 2.6 0.00 0.00 0.00 76 1012.7
20260503033605 37 342 1.7 2.6 0.00 0.00 0.00 76 1012.7
20260503033105 37 341 0.9 2.6 0.00 0.00 0.00 76 1012.7
20260503032604 37 341 0.9 5.2 0.00 0.00 0.00 76 1012.7
20260503032104 37 341 2.6 5.2 0.00 0.00 0.00 76 1012.7
20260503031604 37 342 0.9 4.3 0.00 0.00 0.00 76 1012.7
20260503031105 37 342 0.0 4.3 0.00 0.00 0.00 75 1012.7
20260503030104 37 330 2.6 4.3 0.00 0.00 0.00 75 1012.7
20260503025104 38 318 0.9 5.2 0.00 0.00 0.00 75 1012.7
20260503024604 38 319 1.7 4.3 0.00 0.00 0.00 75 1012.7
20260503023604 38 335 0.9 5.2 0.00 0.00 0.00 74 1012.7
20260503023104 38 335 1.7 5.2 0.00 0.00 0.00 74 1012.7
20260503022604 38 337 0.9 2.6 0.00 0.00 0.00 74 1012.7
20260503022105 38 338 0.9 5.2 0.00 0.00 0.00 74 1012.7
20260503021605 38 336 0.9 7.0 0.00 0.01 0.00 74 1011.9
20260503021104 38 337 3.5 7.0 0.00 0.01 0.00 74 1011.9
20260503020605 38 343 2.6 5.2 0.00 0.01 0.00 74 1011.9
20260503015605 38 317 4.3 7.0 0.00 0.01 0.00 74 1011.9
20260503015105 39 338 1.7 7.0 0.00 0.01 0.00 74 1011.9
20260503014105 39 333 2.6 7.8 0.00 0.01 0.00 74 1011.9
20260503013605 39 347 0.9 7.8 0.00 0.01 0.00 74 1011.9
20260503012604 39 343 1.7 7.8 0.00 0.02 0.00 73 1011.9
20260503012105 39 347 2.6 8.7 0.00 0.02 0.00 73 1011.9
20260503011604 39 355 2.6 8.7 0.00 0.03 0.00 73 1011.9
20260503011105 39 357 4.3 10.4 0.00 0.04 0.00 73 1011.9
20260503010604 39 335 4.3 10.4 0.00 0.04 0.00 72 1011.9
20260503005604 40 7 1.7 7.8 0.00 0.05 0.00 72 1011.9
20260503004605 40 346 2.6 5.2 0.00 0.06 0.00 71 1011.9
20260503003605 40 356 1.7 7.8 0.00 0.06 0.00 70 1011.9
20260503003104 40 332 3.5 10.4 0.00 0.07 0.00 70 1011.9
20260503002105 41 339 3.5 10.4 0.00 0.07 0.00 69 1011.9
20260503001605 41 345 2.6 10.4 0.00 0.07 0.00 68 1011.9
20260503001105 41 353 2.6 10.4 0.00 0.08 0.00 67 1011.9
20260503000105 41 359 2.6 7.8 0.00 0.08 0.00 66 1011.9
20260502235604 41 8 4.3 7.8 0.00 0.09 0.00 65 1011.9
20260502235104 41 5 3.5 10.4 0.00 0.09 0.00 64 1011.8
20260502234604 42 356 3.5 10.4 0.00 0.09 0.00 63 1011.8
20260502234105 42 341 4.3 8.7 0.00 0.09 0.00 62 1011.8
20260502232605 42 349 1.7 7.8 0.00 0.09 0.00 61 1011.8
20260502232105 43 334 4.3 10.4 0.00 0.10 0.00 60 1011.1
20260502231604 43 333 2.6 10.4 0.00 0.10 0.00 60 1011.1
20260502231104 43 355 4.3 8.7 0.00 0.10 0.00 60 1011.1
20260502230605 43 343 2.6 8.7 0.00 0.11 0.00 60 1011.1
20260502230104 43 2 1.7 8.7 0.00 0.11 0.00 59 1011.1
20260502225104 43 328 2.6 10.4 0.00 0.12 0.00 58 1011.1
20260502224605 44 344 5.2 8.7 0.00 0.12 0.00 58 1011.1
20260502224105 44 345 2.6 10.4 0.00 0.12 0.00 58 1011.1
20260502223605 44 358 3.5 11.3 0.00 0.12 0.00 57 1011.1
20260502223104 44 348 3.5 11.3 0.00 0.12 0.00 56 1011.1
20260502222605 44 351 4.3 11.3 0.00 0.13 0.00 57 1011.1
20260502222104 44 334 5.2 10.4 0.00 0.14 0.00 54 1011.1
20260502221604 44 329 4.3 10.4 0.00 0.14 0.00 55 1011.1
20260502221105 44 338 2.6 8.7 0.00 0.14 0.00 55 1011.1
20260502220604 44 301 3.5 10.4 0.00 0.14 0.00 56 1011.1
20260502215604 44 324 0.9 7.8 0.00 0.15 0.00 56 1011.1
20260502215104 44 331 4.3 7.8 0.00 0.15 0.00 55 1011.1
20260502214605 44 323 4.3 7.8 0.00 0.15 0.00 56 1011.1
20260502214105 44 338 1.7 8.7 0.00 0.16 0.00 57 1011.1
20260502213604 44 9 2.6 8.7 0.00 0.16 0.00 55 1011.1
20260502213104 44 318 2.6 10.4 0.00 0.16 0.00 55 1011.1
20260502212605 45 341 4.3 10.4 0.00 0.16 0.00 55 1011.1
20260502211604 45 331 2.6 6.1 0.00 0.16 0.00 55 1011.1
20260502211104 45 327 1.7 6.1 0.00 0.16 0.00 55 1011.1
20260502210604 45 340 0.0 4.3 0.00 0.16 0.00 56 1011.1
20260502210104 45 340 0.0 7.0 0.00 0.16 0.00 54 1011.1
20260502205604 45 341 1.7 7.0 0.00 0.16 0.00 55 1011.1
20260502205104 45 323 0.9 4.3 0.00 0.16 0.00 56 1011.1
20260502204604 45 290 1.7 7.0 0.00 0.16 0.00 55 1011.1
20260502204105 45 334 0.9 7.8 0.00 0.16 0.00 55 1011.1
20260502203604 45 344 0.9 7.8 0.00 0.16 0.00 55 1011.8
20260502203104 46 345 1.7 8.7 0.00 0.16 0.00 55 1011.8
20260502202104 46 267 1.7 7.8 0.00 0.16 0.00 54 1011.8
20260502201604 46 344 2.6 6.1 0.00 0.16 0.00 54 1011.8
20260502201105 46 327 1.7 7.0 0.00 0.16 0.00 57 1011.8
20260502200605 46 349 3.5 7.0 0.00 0.16 0.00 56 1011.8
20260502195604 45 273 1.7 2.6 0.00 0.16 0.00 56 1011.8
20260502194605 46 357 0.9 8.7 0.00 0.16 0.00 56 1011.8
20260502194105 46 351 2.6 8.7 0.00 0.16 0.00 56 1011.8
20260502193604 46 43 1.7 7.8 0.00 0.16 0.00 56 1011.8
20260502193104 47 49 1.7 7.8 0.00 0.16 0.00 56 1011.8
20260502191604 47 300 1.7 7.8 0.00 0.16 0.00 53 1012.0
20260502191104 47 341 1.7 8.7 0.00 0.16 0.00 54 1012.0
20260502190604 47 323 4.3 10.4 0.00 0.16 0.00 52 1012.0
20260502190105 48 307 1.7 10.4 0.00 0.16 0.00 51 1012.0
20260502185604 48 318 4.3 10.4 0.00 0.16 0.00 51 1012.0
20260502185104 49 324 4.3 10.4 0.00 0.16 0.00 54 1012.0
20260502184604 48 2 1.7 8.7 0.00 0.16 0.00 54 1012.0
20260502184104 48 306 1.7 7.0 0.00 0.16 0.00 52 1012.0
20260502183104 48 229 1.7 6.1 0.00 0.16 0.00 54 1012.0
20260502182605 48 199 1.7 5.2 0.00 0.16 0.00 53 1012.0
20260502182104 48 344 0.0 5.2 0.00 0.16 0.00 53 1012.0
20260502181604 47 344 2.6 11.3 0.00 0.16 0.00 56 1012.0
20260502181105 47 318 0.0 11.3 0.00 0.16 0.00 54 1012.0
20260502180605 47 354 1.7 10.4 0.00 0.16 0.00 54 1012.0
20260502180104 46 11 0.9 7.8 0.00 0.16 0.00 55 1012.0
20260502170104 46 348 4.3 10.4 0.00 0.16 0.00 54 1012.2
20260502164105 46 296 4.3 8.7 0.00 0.16 0.00 52 1012.2
20260502163604 46 300 1.7 10.4 0.00 0.16 0.00 55 1012.5
20260502163104 46 3 4.3 10.4 0.00 0.16 0.00 52 1012.5
20260502162105 46 347 4.3 10.4 0.00 0.16 0.00 53 1012.5
20260502161604 46 282 0.9 7.0 0.00 0.16 0.00 55 1012.5
20260502161104 46 317 1.7 7.0 0.00 0.16 0.00 52 1012.5
20260502160604 46 256 0.9 4.3 0.00 0.16 0.00 52 1012.5
20260502160104 47 246 2.6 12.2 0.00 0.16 0.00 52 1012.5
20260502152104 46 0 3.5 11.3 0.00 0.16 0.00 54 1014.5
20260502151105 45 307 2.6 12.2 0.00 0.16 0.00 51 1014.4
20260502150604 45 16 4.3 12.2 0.00 0.16 0.00 51 1014.3
20260502150104 45 289 5.2 12.2 0.00 0.16 0.00 54 1014.4
20260502140104 43 301 4.3 12.2 0.00 0.16 0.00 58 1012.7
20260502130605 41 353 3.5 10.4 0.00 0.16 0.00 76 1011.8
20260502130105 41 323 4.3 10.4 0.00 0.16 0.00 77 1011.8
20260502123604 39 279 3.5 8.7 0.00 0.16 0.00 86 1011.8
20260502123105 38 324 1.7 8.7 0.00 0.16 0.00 89 1011.8
20260502122604 37 337 4.3 7.8 0.00 0.16 0.00 90 1011.8
20260502122104 37 319 2.6 10.4 0.00 0.16 0.00 91 1011.8
20260502121604 36 323 4.3 10.4 0.00 0.16 0.00 92 1011.8
20260502121105 36 331 4.3 12.2 0.00 0.16 0.00 92 1011.8
20260502120605 35 299 3.5 12.2 0.00 0.16 0.00 92 1011.8
20260502120105 35 324 1.7 10.4 0.00 0.16 0.00 92 1011.8
20260502115605 35 342 4.3 10.4 0.00 0.16 0.00 92 1011.8
20260502115105 35 311 3.5 10.4 0.00 0.16 0.00 93 1011.8
20260502114604 35 336 4.3 10.4 0.00 0.16 0.00 93 1011.8
20260502114105 35 346 3.5 10.4 0.00 0.16 0.00 93 1011.8
20260502113605 34 340 2.6 7.8 0.00 0.16 0.00 93 1011.8
20260502113104 34 327 2.6 7.8 0.00 0.16 0.00 93 1011.8
20260502112605 34 0 1.7 7.0 0.00 0.16 0.00 93 1011.8
20260502111605 34 324 0.0 7.0 0.00 0.16 0.00 93 1011.8
20260502111105 34 313 1.7 7.0 0.00 0.16 0.00 93 1011.8
20260502110605 34 325 0.9 7.8 0.00 0.16 0.00 93 1011.8
20260502110105 34 337 0.0 7.8 0.00 0.16 0.00 93 1011.8
20260502105605 34 343 1.7 2.6 0.00 0.16 0.00 92 1011.8
20260502104105 35 319 0.0 4.3 0.00 0.16 0.00 92 1011.8
20260502103604 35 319 0.9 4.3 0.00 0.16 0.00 92 1011.8
20260502103105 35 332 0.9 4.3 0.00 0.16 0.00 92 1011.8
20260502102605 35 323 1.7 4.3 0.00 0.16 0.00 92 1011.8
20260502102104 35 337 0.0 2.6 0.00 0.16 0.00 92 1011.8
20260502100607 36 336 0.0 0.9 0.00 0.16 0.00 92 1011.7
20260502100104 36 336 0.0 1.7 0.00 0.16 0.00 92 1011.8
20260502091105 37 329 1.7 4.3 0.00 0.16 0.00 93 1011.6
20260502090604 37 344 1.7 4.3 0.00 0.16 0.00 93 1011.6
20260502090105 38 306 0.9 7.0 0.00 0.16 0.00 93 1011.6
20260502080105 38 281 0.9 2.6 0.00 0.16 0.00 93 1011.2
20260502071105 38 275 0.9 6.1 0.00 0.16 0.00 93 1011.2
20260502070604 38 315 0.9 2.6 0.00 0.16 0.00 93 1011.2
20260502070105 38 315 0.0 2.6 0.00 0.16 0.00 93 1011.2
20260502065104 38 315 0.0 7.0 0.00 0.16 0.00 93 1011.2
20260502064604 38 315 0.0 7.0 0.00 0.16 0.00 93 1011.2
20260502064104 38 325 1.7 5.2 0.00 0.16 0.00 92 1011.2
20260502063605 38 339 1.7 4.3 0.00 0.16 0.00 92 1011.2
20260502063104 38 9 0.9 4.3 0.00 0.16 0.00 92 1011.2
20260502062105 38 343 1.7 5.2 0.00 0.16 0.00 92 1011.3
20260502061605 38 342 0.9 4.3 0.00 0.16 0.00 92 1011.3
20260502061105 39 342 0.9 4.3 0.00 0.16 0.00 92 1011.3
20260502060605 38 348 0.0 4.3 0.00 0.16 0.00 92 1011.3
20260502060105 39 348 0.9 4.3 0.00 0.16 0.00 92 1011.3
20260502055604 39 331 0.9 4.3 0.00 0.16 0.00 92 1011.3
20260502055104 39 330 1.7 4.3 0.00 0.16 0.00 92 1011.3
20260502054605 39 332 1.7 4.3 0.00 0.16 0.00 92 1011.3
20260502054105 39 335 0.9 5.2 0.00 0.16 0.00 92 1011.3
20260502053604 39 346 2.6 7.8 0.00 0.16 0.00 92 1011.3
20260502053104 39 327 2.6 7.8 0.00 0.16 0.00 92 1011.3
20260502052604 39 326 2.6 7.0 0.00 0.16 0.00 92 1011.3
20260502052104 39 330 2.6 7.0 0.00 0.16 0.00 92 1011.3
20260502051605 39 333 0.9 4.3 0.00 0.16 0.00 92 1011.3